| time (UTC) | temp F | wind direction | speed MPH | gust MPH | rain 1hr in | rain 24hr in | rain mn in | humidity % | barometer mb |
| 20260506135002 | 44 | 211 | 10.0 | 16.0 | 0.00 | 0.24 | 0.24 | 74 | 1019.1 |
| 20260506134506 | 44 | 235 | 8.0 | 18.0 | 0.00 | 0.24 | 0.24 | 74 | 1018.9 |
| 20260506134002 | 44 | 245 | 11.0 | 21.0 | 0.00 | 0.24 | 0.24 | 73 | 1018.9 |
| 20260506133004 | 45 | 237 | 8.0 | 19.0 | 0.00 | 0.24 | 0.24 | 74 | 1018.9 |
| 20260506131503 | 45 | 236 | 7.0 | 17.0 | 0.00 | 0.24 | 0.24 | 75 | 1018.8 |
| 20260506130506 | 45 | 259 | 11.0 | 16.0 | 0.00 | 0.24 | 0.24 | 77 | 1018.6 |
| 20260506130008 | 46 | 268 | 8.0 | 14.0 | 0.00 | 0.24 | 0.24 | 76 | 1018.6 |
| 20260506125502 | 46 | 256 | 8.0 | 15.0 | 0.00 | 0.24 | 0.24 | 76 | 1018.6 |
| 20260506125005 | 46 | 250 | 9.0 | 15.0 | 0.00 | 0.24 | 0.24 | 77 | 1018.7 |
| 20260506124513 | 46 | 237 | 9.0 | 15.0 | 0.00 | 0.24 | 0.24 | 77 | 1018.7 |
| 20260506124002 | 45 | 251 | 7.0 | 12.0 | 0.00 | 0.24 | 0.24 | 78 | 1018.7 |
| 20260506122507 | 45 | 241 | 9.0 | 17.0 | 0.00 | 0.24 | 0.24 | 79 | 1018.7 |
| 20260506122003 | 45 | 256 | 11.0 | 17.0 | 0.00 | 0.24 | 0.24 | 79 | 1018.7 |
| 20260506121505 | 45 | 239 | 8.0 | 14.0 | 0.00 | 0.24 | 0.24 | 80 | 1018.6 |
| 20260506121003 | 45 | 226 | 9.0 | 15.0 | 0.00 | 0.24 | 0.24 | 81 | 1018.7 |
| 20260506120004 | 45 | 258 | 9.0 | 17.0 | 0.00 | 0.24 | 0.24 | 82 | 1018.6 |
| 20260506115503 | 45 | 266 | 9.0 | 17.0 | 0.01 | 0.24 | 0.24 | 83 | 1018.7 |
| 20260506115007 | 45 | 237 | 9.0 | 17.0 | 0.03 | 0.24 | 0.24 | 83 | 1018.6 |
| 20260506114503 | 45 | 247 | 10.0 | 20.0 | 0.03 | 0.24 | 0.24 | 84 | 1018.6 |
| 20260506114006 | 45 | 256 | 8.0 | 20.0 | 0.03 | 0.24 | 0.24 | 84 | 1018.6 |
| 20260506113503 | 45 | 265 | 9.0 | 19.0 | 0.04 | 0.24 | 0.24 | 85 | 1018.6 |
| 20260506113004 | 45 | 228 | 10.0 | 19.0 | 0.04 | 0.24 | 0.24 | 85 | 1018.6 |
| 20260506111004 | 45 | 224 | 12.0 | 25.0 | 0.09 | 0.23 | 0.23 | 85 | 1018.8 |
| 20260506110504 | 45 | 202 | 16.0 | 29.0 | 0.18 | 0.23 | 0.23 | 85 | 1018.6 |
| 20260506110006 | 45 | 229 | 16.0 | 35.0 | 0.22 | 0.23 | 0.23 | 85 | 1018.6 |
| 20260506105507 | 46 | 185 | 19.0 | 35.0 | 0.21 | 0.22 | 0.22 | 85 | 1018.5 |
| 20260506105004 | 48 | 257 | 11.0 | 18.0 | 0.19 | 0.21 | 0.21 | 86 | 1018.2 |
| 20260506104509 | 48 | 223 | 8.0 | 17.0 | 0.19 | 0.21 | 0.21 | 86 | 1018.1 |
| 20260506104004 | 48 | 225 | 7.0 | 18.0 | 0.18 | 0.20 | 0.20 | 86 | 1018.0 |
| 20260506103508 | 48 | 255 | 11.0 | 18.0 | 0.18 | 0.19 | 0.19 | 86 | 1018.0 |
| 20260506103018 | 49 | 259 | 10.0 | 17.0 | 0.18 | 0.19 | 0.19 | 85 | 1017.9 |
| 20260506102504 | 48 | 247 | 9.0 | 17.0 | 0.17 | 0.18 | 0.18 | 85 | 1017.8 |
| 20260506101506 | 48 | 235 | 5.0 | 15.0 | 0.16 | 0.17 | 0.17 | 84 | 1017.8 |
| 20260506101008 | 49 | 243 | 8.0 | 16.0 | 0.14 | 0.14 | 0.14 | 82 | 1017.9 |
| 20260506100504 | 51 | 206 | 10.0 | 17.0 | 0.05 | 0.05 | 0.05 | 83 | 1017.8 |
| 20260506100005 | 52 | 313 | 7.0 | 18.0 | 0.01 | 0.01 | 0.01 | 84 | 1016.9 |
| 20260506095504 | 51 | 354 | 7.0 | 18.0 | 0.01 | 0.01 | 0.01 | 84 | 1016.4 |
| 20260506095005 | 51 | 359 | 10.0 | 15.0 | 0.01 | 0.01 | 0.01 | 84 | 1016.4 |
| 20260506094506 | 51 | 341 | 8.0 | 19.0 | 0.01 | 0.01 | 0.01 | 84 | 1016.5 |
| 20260506094003 | 51 | 353 | 10.0 | 19.0 | 0.01 | 0.01 | 0.01 | 83 | 1016.6 |
| 20260506093507 | 51 | 16 | 11.0 | 19.0 | 0.01 | 0.01 | 0.01 | 83 | 1016.7 |
| 20260506093013 | 51 | 351 | 13.0 | 19.0 | 0.01 | 0.01 | 0.01 | 83 | 1016.8 |
| 20260506092507 | 51 | 345 | 11.0 | 18.0 | 0.01 | 0.01 | 0.01 | 83 | 1016.9 |
| 20260506092004 | 52 | 342 | 11.0 | 19.0 | 0.01 | 0.01 | 0.01 | 82 | 1016.8 |
| 20260506091517 | 52 | 340 | 12.0 | 20.0 | 0.00 | 0.00 | 0.00 | 82 | 1016.9 |
| 20260506091004 | 52 | 330 | 13.0 | 22.0 | 0.00 | 0.00 | 0.00 | 81 | 1016.9 |
| 20260506090501 | 52 | 324 | 15.0 | 22.0 | 0.00 | 0.00 | 0.00 | 80 | 1016.9 |
| 20260506090015 | 52 | 343 | 14.0 | 24.0 | 0.00 | 0.00 | 0.00 | 80 | 1016.8 |
| 20260506085505 | 53 | 331 | 13.0 | 24.0 | 0.00 | 0.00 | 0.00 | 78 | 1016.6 |
| 20260506085008 | 53 | 1 | 14.0 | 24.0 | 0.00 | 0.00 | 0.00 | 76 | 1016.5 |
| 20260506084511 | 53 | 357 | 16.0 | 24.0 | 0.00 | 0.00 | 0.00 | 75 | 1016.3 |
| 20260506084005 | 53 | 22 | 16.0 | 23.0 | 0.00 | 0.00 | 0.00 | 75 | 1016.1 |
| 20260506083507 | 53 | 331 | 11.0 | 25.0 | 0.00 | 0.00 | 0.00 | 74 | 1016.1 |
| 20260506083009 | 53 | 12 | 14.0 | 25.0 | 0.00 | 0.00 | 0.00 | 74 | 1016.1 |
| 20260506082506 | 53 | 324 | 11.0 | 20.0 | 0.00 | 0.00 | 0.00 | 74 | 1016.1 |
| 20260506082012 | 53 | 13 | 10.0 | 21.0 | 0.00 | 0.00 | 0.00 | 74 | 1016.1 |
| 20260506081509 | 53 | 25 | 11.0 | 21.0 | 0.00 | 0.00 | 0.00 | 74 | 1016.0 |
| 20260506081011 | 53 | 356 | 9.0 | 23.0 | 0.00 | 0.00 | 0.00 | 74 | 1016.0 |
| 20260506080507 | 53 | 357 | 10.0 | 23.0 | 0.00 | 0.00 | 0.00 | 74 | 1016.0 |
| 20260506073009 | 54 | 355 | 8.0 | 17.0 | 0.00 | 0.00 | 0.00 | 74 | 1015.9 |
| 20260506072003 | 54 | 345 | 9.0 | 17.0 | 0.00 | 0.00 | 0.00 | 73 | 1016.0 |
| 20260506071519 | 54 | 311 | 8.0 | 18.0 | 0.00 | 0.00 | 0.00 | 73 | 1016.1 |
| 20260506071006 | 55 | 343 | 11.0 | 18.0 | 0.00 | 0.00 | 0.00 | 72 | 1016.1 |
| 20260506070507 | 55 | 359 | 8.0 | 21.0 | 0.00 | 0.00 | 0.00 | 72 | 1016.1 |
| 20260506062510 | 54 | 6 | 6.0 | 19.0 | 0.00 | 0.00 | 0.00 | 72 | 1016.7 |
| 20260506062011 | 55 | 10 | 9.0 | 19.0 | 0.00 | 0.00 | 0.00 | 71 | 1016.7 |
| 20260506061007 | 56 | 360 | 10.0 | 21.0 | 0.00 | 0.00 | 0.00 | 68 | 1016.7 |
| 20260506060504 | 56 | 333 | 12.0 | 21.0 | 0.00 | 0.00 | 0.00 | 68 | 1016.8 |
| 20260506051003 | 56 | 10 | 10.0 | 19.0 | 0.00 | 0.00 | 0.00 | 69 | 1017.9 |
| 20260506050503 | 56 | 360 | 10.0 | 24.0 | 0.00 | 0.00 | 0.00 | 66 | 1017.8 |
| 20260506045005 | 57 | 337 | 14.0 | 23.0 | 0.00 | 0.00 | 0.00 | 63 | 1017.9 |
| 20260506044519 | 58 | 349 | 14.0 | 23.0 | 0.00 | 0.00 | 0.00 | 63 | 1017.8 |
| 20260506044006 | 58 | 324 | 16.0 | 22.0 | 0.00 | 0.00 | 0.00 | 62 | 1017.8 |
| 20260506043503 | 58 | 327 | 15.0 | 22.0 | 0.00 | 0.00 | 0.00 | 61 | 1017.9 |
| 20260506043004 | 58 | 343 | 11.0 | 24.0 | 0.00 | 0.00 | 0.00 | 61 | 1018.0 |
| 20260506042504 | 58 | 333 | 17.0 | 23.0 | 0.00 | 0.00 | 0.00 | 62 | 1017.9 |
| 20260506042004 | 58 | 309 | 12.0 | 24.0 | 0.00 | 0.00 | 0.00 | 62 | 1018.0 |
| 20260506041505 | 58 | 320 | 14.0 | 24.0 | 0.00 | 0.00 | 0.00 | 63 | 1018.1 |
| 20260506041004 | 57 | 352 | 14.0 | 23.0 | 0.00 | 0.00 | 0.00 | 64 | 1018.0 |
| 20260506040504 | 58 | 332 | 14.0 | 21.0 | 0.00 | 0.00 | 0.00 | 63 | 1018.1 |
| 20260506040008 | 57 | 337 | 14.0 | 21.0 | 0.00 | 0.00 | 0.00 | 63 | 1018.1 |
| 20260506035503 | 57 | 311 | 14.0 | 24.0 | 0.00 | 0.00 | 0.00 | 62 | 1018.1 |
| 20260506035004 | 57 | 327 | 14.0 | 24.0 | 0.00 | 0.00 | 0.00 | 63 | 1018.2 |
| 20260506034506 | 57 | 328 | 15.0 | 23.0 | 0.00 | 0.00 | 0.00 | 63 | 1018.3 |
| 20260506033505 | 56 | 340 | 12.0 | 19.0 | 0.00 | 0.00 | 0.00 | 64 | 1018.5 |
| 20260506033006 | 57 | 324 | 10.0 | 15.0 | 0.00 | 0.00 | 0.00 | 64 | 1018.6 |
| 20260506032506 | 57 | 328 | 9.0 | 19.0 | 0.00 | 0.00 | 0.00 | 65 | 1018.8 |
| 20260506032011 | 57 | 303 | 10.0 | 19.0 | 0.00 | 0.00 | 0.00 | 65 | 1019.0 |
| 20260506031505 | 56 | 316 | 9.0 | 18.0 | 0.00 | 0.00 | 0.00 | 66 | 1019.1 |
| 20260506031005 | 56 | 318 | 11.0 | 19.0 | 0.00 | 0.00 | 0.00 | 65 | 1019.2 |
| 20260506030503 | 55 | 314 | 12.0 | 19.0 | 0.00 | 0.00 | 0.00 | 64 | 1019.2 |
| 20260506030006 | 55 | 314 | 12.0 | 16.0 | 0.00 | 0.00 | 0.00 | 65 | 1019.2 |
| 20260506025506 | 55 | 298 | 12.0 | 18.0 | 0.00 | 0.00 | 0.00 | 65 | 1019.1 |
| 20260506025004 | 56 | 297 | 9.0 | 18.0 | 0.00 | 0.00 | 0.00 | 66 | 1019.2 |
| 20260506024510 | 56 | 315 | 10.0 | 18.0 | 0.00 | 0.00 | 0.00 | 65 | 1019.3 |
| 20260506024010 | 56 | 318 | 9.0 | 18.0 | 0.00 | 0.00 | 0.00 | 65 | 1019.4 |
| 20260506023014 | 56 | 327 | 10.0 | 17.0 | 0.00 | 0.00 | 0.00 | 65 | 1019.6 |
| 20260506022505 | 56 | 308 | 11.0 | 17.0 | 0.00 | 0.00 | 0.00 | 65 | 1019.6 |
| 20260506022006 | 56 | 301 | 14.0 | 17.0 | 0.00 | 0.00 | 0.00 | 64 | 1019.8 |
| 20260506021511 | 56 | 314 | 11.0 | 17.0 | 0.00 | 0.00 | 0.00 | 66 | 1019.8 |
| 20260506021004 | 55 | 312 | 9.0 | 15.0 | 0.00 | 0.00 | 0.00 | 67 | 1019.9 |
| 20260506020507 | 55 | 311 | 9.0 | 13.0 | 0.00 | 0.00 | 0.00 | 68 | 1020.2 |
| 20260506015505 | 55 | 316 | 10.0 | 13.0 | 0.00 | 0.00 | 0.00 | 71 | 1020.3 |
| 20260506015005 | 55 | 325 | 8.0 | 14.0 | 0.00 | 0.00 | 0.00 | 72 | 1020.2 |
| 20260506014508 | 54 | 326 | 8.0 | 16.0 | 0.00 | 0.00 | 0.00 | 71 | 1020.2 |
| 20260506014004 | 54 | 339 | 9.0 | 16.0 | 0.00 | 0.00 | 0.00 | 71 | 1020.4 |
| 20260506013504 | 54 | 334 | 8.0 | 16.0 | 0.00 | 0.00 | 0.00 | 71 | 1020.4 |
| 20260506012504 | 54 | 349 | 7.0 | 16.0 | 0.00 | 0.00 | 0.00 | 71 | 1020.5 |
| 20260506012009 | 54 | 5 | 9.0 | 16.0 | 0.00 | 0.00 | 0.00 | 70 | 1020.6 |
| 20260506011520 | 54 | 345 | 9.0 | 16.0 | 0.00 | 0.00 | 0.00 | 70 | 1020.7 |
| 20260506011010 | 54 | 13 | 9.0 | 16.0 | 0.00 | 0.00 | 0.00 | 70 | 1020.7 |
| 20260506010022 | 54 | 326 | 9.0 | 17.0 | 0.00 | 0.00 | 0.00 | 70 | 1020.9 |
| 20260506005511 | 54 | 20 | 8.0 | 15.0 | 0.00 | 0.00 | 0.00 | 68 | 1020.9 |
| 20260506005003 | 55 | 355 | 9.0 | 15.0 | 0.00 | 0.00 | 0.00 | 69 | 1020.8 |
| 20260506004524 | 55 | 345 | 7.0 | 15.0 | 0.00 | 0.00 | 0.00 | 69 | 1020.9 |
| 20260506004005 | 55 | 335 | 9.0 | 15.0 | 0.00 | 0.00 | 0.00 | 68 | 1020.9 |
| 20260506003504 | 55 | 33 | 6.0 | 14.0 | 0.00 | 0.00 | 0.00 | 68 | 1021.0 |
| 20260506003009 | 55 | 359 | 8.0 | 14.0 | 0.00 | 0.00 | 0.00 | 68 | 1021.1 |
| 20260506002507 | 55 | 355 | 5.0 | 12.0 | 0.00 | 0.00 | 0.00 | 69 | 1021.2 |
| 20260506002006 | 55 | 331 | 6.0 | 14.0 | 0.00 | 0.00 | 0.00 | 68 | 1021.2 |
| 20260506001511 | 54 | 341 | 7.0 | 14.0 | 0.00 | 0.00 | 0.00 | 69 | 1021.2 |
| 20260506000507 | 54 | 337 | 7.0 | 14.0 | 0.00 | 0.00 | 0.00 | 68 | 1021.3 |
| 20260506000010 | 54 | 11 | 8.0 | 14.0 | 0.00 | 0.00 | 0.00 | 68 | 1021.3 |
| 20260505235511 | 54 | 345 | 7.0 | 13.0 | 0.00 | 0.00 | 0.00 | 69 | 1021.3 |
| 20260505235008 | 54 | 1 | 6.0 | 13.0 | 0.00 | 0.00 | 0.00 | 70 | 1021.4 |
| 20260505234512 | 53 | 16 | 8.0 | 13.0 | 0.00 | 0.00 | 0.00 | 70 | 1021.3 |
| 20260505234008 | 53 | 2 | 6.0 | 13.0 | 0.00 | 0.00 | 0.00 | 70 | 1021.4 |
| 20260505233027 | 53 | 340 | 6.0 | 11.0 | 0.00 | 0.00 | 0.00 | 70 | 1021.5 |
| 20260505232004 | 53 | 343 | 8.0 | 14.0 | 0.00 | 0.00 | 0.00 | 71 | 1021.6 |
| 20260505231513 | 53 | 15 | 7.0 | 11.0 | 0.00 | 0.00 | 0.00 | 71 | 1021.6 |
| 20260505231006 | 53 | 8 | 6.0 | 11.0 | 0.00 | 0.00 | 0.00 | 71 | 1021.6 |
| 20260505230506 | 53 | 349 | 6.0 | 11.0 | 0.00 | 0.00 | 0.00 | 71 | 1021.5 |
| 20260505230029 | 53 | 341 | 6.0 | 10.0 | 0.00 | 0.00 | 0.00 | 71 | 1021.7 |
| 20260505225508 | 52 | 2 | 6.0 | 10.0 | 0.00 | 0.00 | 0.00 | 71 | 1021.7 |
| 20260505225012 | 52 | 341 | 7.0 | 10.0 | 0.00 | 0.00 | 0.00 | 71 | 1021.6 |
| 20260505224518 | 52 | 337 | 5.0 | 10.0 | 0.00 | 0.00 | 0.00 | 71 | 1021.7 |
| 20260505224008 | 52 | 349 | 6.0 | 10.0 | 0.00 | 0.00 | 0.00 | 71 | 1021.6 |
| 20260505223511 | 52 | 330 | 6.0 | 10.0 | 0.00 | 0.00 | 0.00 | 71 | 1021.6 |
| 20260505223021 | 52 | 339 | 4.0 | 8.0 | 0.00 | 0.00 | 0.00 | 72 | 1021.5 |
| 20260505222511 | 52 | 337 | 5.0 | 8.0 | 0.00 | 0.00 | 0.00 | 71 | 1021.5 |
| 20260505222015 | 52 | 4 | 4.0 | 9.0 | 0.00 | 0.00 | 0.00 | 71 | 1021.5 |
| 20260505221519 | 52 | 16 | 4.0 | 9.0 | 0.00 | 0.00 | 0.00 | 71 | 1021.5 |
| 20260505221012 | 52 | 344 | 4.0 | 8.0 | 0.00 | 0.00 | 0.00 | 71 | 1021.5 |
| 20260505220506 | 52 | 8 | 4.0 | 8.0 | 0.00 | 0.00 | 0.00 | 71 | 1021.5 |
| 20260505220013 | 52 | 10 | 3.0 | 9.0 | 0.00 | 0.00 | 0.00 | 71 | 1021.6 |
| 20260505215508 | 51 | 23 | 5.0 | 9.0 | 0.00 | 0.00 | 0.00 | 71 | 1021.6 |
| 20260505215007 | 51 | 339 | 4.0 | 9.0 | 0.00 | 0.00 | 0.00 | 71 | 1021.6 |
| 20260505214504 | 51 | 330 | 5.0 | 9.0 | 0.00 | 0.00 | 0.00 | 72 | 1021.6 |
| 20260505214003 | 51 | 14 | 2.0 | 6.0 | 0.00 | 0.00 | 0.00 | 72 | 1021.7 |
| 20260505213503 | 51 | 358 | 1.0 | 7.0 | 0.00 | 0.00 | 0.00 | 72 | 1021.7 |
| 20260505213004 | 51 | 16 | 2.0 | 7.0 | 0.00 | 0.00 | 0.00 | 72 | 1021.7 |
| 20260505212503 | 51 | 14 | 3.0 | 7.0 | 0.00 | 0.00 | 0.00 | 72 | 1021.7 |
| 20260505212003 | 51 | 358 | 0.0 | 7.0 | 0.00 | 0.00 | 0.00 | 72 | 1021.5 |
| 20260505211504 | 51 | 341 | 3.0 | 7.0 | 0.00 | 0.00 | 0.00 | 72 | 1021.7 |
| 20260505211003 | 51 | 4 | 2.0 | 5.0 | 0.00 | 0.00 | 0.00 | 73 | 1021.8 |
| 20260505210507 | 51 | 14 | 2.0 | 7.0 | 0.00 | 0.00 | 0.00 | 73 | 1021.8 |
| 20260505210004 | 51 | 360 | 3.0 | 7.0 | 0.00 | 0.00 | 0.00 | 73 | 1021.6 |
| 20260505205513 | 51 | 13 | 2.0 | 6.0 | 0.00 | 0.00 | 0.00 | 73 | 1021.6 |
| 20260505205006 | 51 | 358 | 4.0 | 6.0 | 0.00 | 0.00 | 0.00 | 73 | 1021.7 |
| 20260505204506 | 51 | 337 | 4.0 | 6.0 | 0.00 | 0.00 | 0.00 | 73 | 1021.8 |
| 20260505204006 | 51 | 359 | 3.0 | 7.0 | 0.00 | 0.00 | 0.00 | 73 | 1021.7 |
| 20260505203503 | 51 | 10 | 3.0 | 7.0 | 0.00 | 0.00 | 0.00 | 73 | 1021.7 |
| 20260505203013 | 51 | 4 | 3.0 | 6.0 | 0.00 | 0.00 | 0.00 | 73 | 1021.8 |
| 20260505202503 | 51 | 4 | 2.0 | 6.0 | 0.00 | 0.00 | 0.00 | 73 | 1021.7 |
| 20260505202004 | 51 | 8 | 2.0 | 5.0 | 0.00 | 0.00 | 0.00 | 73 | 1021.7 |
| 20260505201506 | 51 | 10 | 2.0 | 7.0 | 0.00 | 0.00 | 0.00 | 73 | 1021.7 |
| 20260505201004 | 51 | 339 | 3.0 | 7.0 | 0.00 | 0.00 | 0.00 | 74 | 1021.5 |
| 20260505200504 | 51 | 341 | 2.0 | 5.0 | 0.00 | 0.00 | 0.00 | 74 | 1021.5 |
| 20260505200009 | 51 | 349 | 2.0 | 6.0 | 0.00 | 0.00 | 0.00 | 73 | 1021.5 |
| 20260505195504 | 51 | 348 | 2.0 | 6.0 | 0.00 | 0.00 | 0.00 | 73 | 1021.5 |
| 20260505195007 | 51 | 10 | 3.0 | 6.0 | 0.00 | 0.00 | 0.00 | 73 | 1021.4 |
| 20260505194514 | 51 | 15 | 1.0 | 6.0 | 0.00 | 0.00 | 0.00 | 74 | 1021.4 |
| 20260505194004 | 51 | 14 | 1.0 | 4.0 | 0.00 | 0.00 | 0.00 | 74 | 1021.4 |
| 20260505193512 | 51 | 17 | 0.0 | 6.0 | 0.00 | 0.00 | 0.00 | 74 | 1021.4 |
| 20260505193011 | 51 | 16 | 3.0 | 6.0 | 0.00 | 0.00 | 0.00 | 74 | 1021.4 |
| 20260505192503 | 51 | 4 | 1.0 | 4.0 | 0.00 | 0.00 | 0.00 | 74 | 1021.4 |
| 20260505192008 | 51 | 4 | 2.0 | 4.0 | 0.00 | 0.00 | 0.00 | 74 | 1021.5 |
| 20260505191513 | 51 | 360 | 1.0 | 4.0 | 0.00 | 0.00 | 0.00 | 73 | 1021.5 |
| 20260505191009 | 51 | 2 | 1.0 | 4.0 | 0.00 | 0.00 | 0.00 | 74 | 1021.6 |
| 20260505190504 | 51 | 352 | 0.0 | 3.0 | 0.00 | 0.00 | 0.00 | 73 | 1021.5 |
| 20260505190005 | 51 | 353 | 1.0 | 3.0 | 0.00 | 0.00 | 0.00 | 73 | 1021.6 |
| 20260505185504 | 52 | 353 | 1.0 | 3.0 | 0.00 | 0.00 | 0.00 | 72 | 1021.6 |
| 20260505185005 | 52 | 353 | 1.0 | 3.0 | 0.00 | 0.00 | 0.00 | 72 | 1021.5 |
| 20260505184006 | 52 | 352 | 1.0 | 7.0 | 0.00 | 0.00 | 0.00 | 71 | 1021.5 |
| 20260505183507 | 52 | 4 | 1.0 | 7.0 | 0.00 | 0.00 | 0.00 | 72 | 1021.5 |
| 20260505183014 | 52 | 333 | 1.0 | 4.0 | 0.00 | 0.00 | 0.00 | 72 | 1021.5 |
| 20260505182504 | 52 | 21 | 0.0 | 3.0 | 0.00 | 0.00 | 0.00 | 72 | 1021.5 |
| 20260505182006 | 52 | 14 | 1.0 | 3.0 | 0.00 | 0.00 | 0.00 | 72 | 1021.6 |
| 20260505181518 | 52 | 360 | 0.0 | 3.0 | 0.00 | 0.00 | 0.00 | 72 | 1021.6 |
| 20260505180510 | 52 | 360 | 1.0 | 4.0 | 0.00 | 0.00 | 0.00 | 72 | 1021.6 |
| 20260505180019 | 52 | 17 | 0.0 | 4.0 | 0.00 | 0.00 | 0.00 | 72 | 1021.6 |
| 20260505175504 | 52 | 14 | 0.0 | 3.0 | 0.00 | 0.00 | 0.00 | 72 | 1021.6 |
| 20260505175004 | 52 | 358 | 0.0 | 1.0 | 0.00 | 0.00 | 0.00 | 72 | 1021.6 |
| 20260505174505 | 52 | 354 | 0.0 | 5.0 | 0.00 | 0.00 | 0.00 | 71 | 1021.7 |
| 20260505173505 | 52 | 354 | 1.0 | 3.0 | 0.00 | 0.00 | 0.00 | 71 | 1021.7 |
| 20260505173010 | 52 | 353 | 1.0 | 3.0 | 0.00 | 0.00 | 0.00 | 72 | 1021.8 |
| 20260505172507 | 52 | 353 | 1.0 | 5.0 | 0.00 | 0.00 | 0.00 | 72 | 1021.8 |
| 20260505172008 | 52 | 351 | 1.0 | 5.0 | 0.00 | 0.00 | 0.00 | 72 | 1021.9 |
| 20260505171008 | 51 | 359 | 1.0 | 5.0 | 0.00 | 0.00 | 0.00 | 73 | 1021.9 |
| 20260505170509 | 51 | 339 | 1.0 | 4.0 | 0.00 | 0.00 | 0.00 | 73 | 1021.9 |
| 20260505170006 | 52 | 335 | 0.0 | 3.0 | 0.00 | 0.00 | 0.00 | 72 | 1022.0 |
| 20260505165510 | 52 | 314 | 1.0 | 4.0 | 0.00 | 0.00 | 0.00 | 72 | 1022.0 |
| 20260505165005 | 52 | 319 | 2.0 | 7.0 | 0.00 | 0.00 | 0.00 | 72 | 1022.0 |
| 20260505164524 | 52 | 334 | 2.0 | 7.0 | 0.00 | 0.00 | 0.00 | 71 | 1022.1 |
| 20260505164007 | 52 | 3 | 3.0 | 7.0 | 0.00 | 0.00 | 0.00 | 72 | 1022.1 |
| 20260505163503 | 52 | 345 | 3.0 | 7.0 | 0.00 | 0.00 | 0.00 | 71 | 1022.1 |
| 20260505162506 | 51 | 2 | 4.0 | 8.0 | 0.00 | 0.00 | 0.00 | 73 | 1022.2 |
| 20260505162007 | 51 | 8 | 2.0 | 5.0 | 0.00 | 0.00 | 0.00 | 73 | 1022.3 |
| 20260505161513 | 51 | 8 | 2.0 | 5.0 | 0.00 | 0.00 | 0.00 | 72 | 1022.4 |
| 20260505161008 | 51 | 4 | 2.0 | 5.0 | 0.00 | 0.00 | 0.00 | 72 | 1022.3 |
| 20260505160511 | 51 | 17 | 2.0 | 6.0 | 0.00 | 0.00 | 0.00 | 72 | 1022.4 |
| 20260505153028 | 51 | 2 | 2.0 | 5.0 | 0.00 | 0.00 | 0.00 | 73 | 1022.7 |
| 20260505152511 | 51 | 22 | 3.0 | 5.0 | 0.00 | 0.00 | 0.00 | 73 | 1022.7 |
| 20260505152012 | 51 | 335 | 0.0 | 6.0 | 0.00 | 0.00 | 0.00 | 73 | 1022.8 |
| 20260505151006 | 51 | 358 | 4.0 | 7.0 | 0.00 | 0.00 | 0.00 | 72 | 1022.8 |
| 20260505150509 | 52 | 7 | 2.0 | 6.0 | 0.00 | 0.00 | 0.00 | 72 | 1022.8 |
| 20260505140511 | 52 | 20 | 0.0 | 3.0 | 0.00 | 0.00 | 0.00 | 69 | 1022.8 |